Location: Prairie State College
(41.5244°N, 87.6382°W)
Time: 22:31:16
(UTC-05:00)

ARGOS Delta rocket - Visible Passes

Search period start: 31 July 2015 00:00
Search period end: 10 August 2015 00:00
Orbit: 637 x 838 km, 96.5° (Epoch: 31 July)

Date Brightness Start Highest point End Pass type
(mag) Time Alt. Az. Time Alt. Az. Time Alt. Az.
31 Jul 4.1 21:00:19 10° SSE 21:05:04 58° ENE 21:10:10 10° N visible
31 Jul 6.4 22:41:11 10° SW 22:44:18 16° W 22:47:17 10° NW visible
01 Aug 5.0 21:54:19 10° SSW 21:58:58 42° W 22:03:52 10° NNW visible
02 Aug 4.0 21:09:10 10° SSE 21:14:04 74° ENE 21:19:18 10° N visible
02 Aug 6.6 22:51:12 10° WSW 22:53:31 13° W 22:55:35 10° WNW visible
03 Aug 5.5 22:03:35 10° SSW 22:08:05 33° W 22:12:47 10° NNW visible
04 Aug 4.0 21:18:05 10° SSE 21:23:05 88° WSW 21:28:24 10° N visible
05 Aug 4.7 20:33:53 10° SE 20:38:26 36° ENE 20:43:17 10° N visible
05 Aug 5.8 22:12:56 10° SSW 22:17:14 27° W 22:21:37 10° NW visible
06 Aug 4.3 21:27:06 10° S 21:32:07 71° W 21:37:27 10° NNW visible
07 Aug 4.5 20:42:35 10° SE 20:47:24 46° ENE 20:52:31 10° N visible
07 Aug 6.2 22:22:25 10° SW 22:26:23 22° W 22:30:22 10° NW visible
08 Aug 4.6 21:36:11 10° S 21:41:11 56° W 21:46:28 10° NNW visible
09 Aug 4.2 20:51:23 10° SSE 20:56:23 58° ENE 21:01:42 10° N visible
09 Aug 6.5 22:32:04 10° SW 22:35:35 18° W 22:38:59 10° NW visible
